Simultaneous Nadir Overpasses (SNOs) Predictions

Prediction of SNOs between LANDSAT-8 and METOP-B Satellite Orbit:

Table of predicted SNOs for the next 14.0 days since TLE Epoch: 8/15/2020
Index Date (LANDSAT-8) Time (LANDSAT-8) Lat,Lon (LANDSAT-8) SZA (LANDSAT-8 ) Date (METOP-B) Time (METOP-B) Lat,Lon (METOP-B) SZA (METOP-B ) Distance(km) Time Diff (sec)
1 08/15/2020 04:44:29 81.20, 150.14 69.42 08/15/2020 04:45:13 81.20, 150.27 69.45 2.23 44
2 08/17/2020 23:29:21 -81.17, 48.45 109.76 08/17/2020 23:28:55 -81.17, 48.49 109.77 0.88 26
3 08/18/2020 00:18:46 81.20,-143.48 70.32 08/18/2020 00:19:34 81.20,-143.42 70.35 1.05 48
4 08/20/2020 19:03:38 -81.18, 115.00 108.81 08/20/2020 19:03:16 -81.17, 114.82 108.84 3.15 22
5 08/20/2020 19:53:03 81.20, -76.95 71.27 08/20/2020 19:53:55 81.19, -77.11 71.27 2.78 52
6 08/23/2020 14:37:55 -81.17,-178.68 107.86 08/23/2020 14:37:36 -81.17,-178.86 107.89 3.07 19
7 08/23/2020 15:27:20 81.19, -10.66 72.21 08/23/2020 15:28:15 81.19, -10.82 72.22 2.60 55
8 08/26/2020 10:12:13 -81.17,-112.23 106.87 08/26/2020 10:11:56 -81.18,-112.17 106.87 1.23 17
